User: anonymous
Location: Wawayanda State Park
(41.1833°N, 74.4333°W)
Time: 23:06:08
(UTC-04:00)
Language:

Landsat 7 - Orbit

View from above orbital plane
View from above orbital plane
View from above satellite
View from above satellite

Ground track
Ground track

The orbit data is extracted from the following two-line orbital elements,

1 25682U 99020A   14206.74894460  .00000111  00000-0  34656-4 0  4545
2 25682 098.2141 275.8470 0000955 048.9960 311.1308 14.57104212812609
Epoch (UTC): 25 July 2014 17:58:28
Eccentricity: 0.0000955
inclination: 98.2141°
perigee height: 702 km
apogee height: 703 km
right ascension of ascending node: 275.8470°
argument of perigee: 48.9960°
revolutions per day: 14.57104212
mean anomaly at epoch: 311.1308°
orbit number at epoch: 81260

The dashed part of the orbit path shows where the satellite is in the earth's shadow,  

DLR